TimeMDT,TemperatureF,Dew PointF,Humidity,Sea Level PressureIn,VisibilityMPH,Wind Direction,Wind SpeedMPH,Gust SpeedMPH,PrecipitationIn,Events,Conditions,WindDirDegrees,DateUTC
12:04 AM,14.0,10.4,86,30.02,8.0,Variable,4.6,-,N/A,,Scattered Clouds,0,2013-03-23 06:04:00
12:36 AM,15.8,10.4,79,30.02,7.0,North,10.4,-,N/A,,Mostly Cloudy,360,2013-03-23 06:36:00
12:50 AM,15.8,10.4,79,30.02,8.0,NNW,11.5,23.0,N/A,,Mostly Cloudy,330,2013-03-23 06:50:00
12:53 AM,14.0,10.0,84,30.16,8.0,NNW,9.2,-,N/A,,Mostly Cloudy,330,2013-03-23 06:53:00
1:02 AM,14.0,10.4,86,30.03,7.0,NNW,9.2,-,N/A,,Mostly Cloudy,340,2013-03-23 07:02:00
1:39 AM,15.8,10.4,79,30.03,10.0,North,19.6,24.2,N/A,,Scattered Clouds,350,2013-03-23 07:39:00
1:53 AM,15.1,10.0,80,30.17,10.0,North,17.3,25.3,N/A,,Partly Cloudy,350,2013-03-23 07:53:00
2:16 AM,14.0,10.4,86,30.04,7.0,North,10.4,21.9,0.00,,Mostly Cloudy,350,2013-03-23 08:16:00
2:23 AM,14.0,10.4,86,30.04,9.0,NNW,11.5,20.7,0.00,,Partly Cloudy,340,2013-03-23 08:23:00
2:53 AM,15.1,9.0,77,30.18,10.0,NW,12.7,24.2,0.00,,Clear,320,2013-03-23 08:53:00
3:53 AM,12.9,9.0,84,30.17,10.0,NNW,9.2,-,N/A,,Clear,340,2013-03-23 09:53:00
4:53 AM,14.0,10.0,84,30.18,10.0,NNW,15.0,26.5,N/A,,Clear,330,2013-03-23 10:53:00
5:53 AM,12.9,8.1,81,30.18,10.0,NW,17.3,25.3,N/A,,Clear,320,2013-03-23 11:53:00
6:53 AM,10.9,6.1,81,30.23,10.0,NNW,8.1,-,N/A,,Clear,330,2013-03-23 12:53:00
7:53 AM,14.0,8.1,77,30.27,8.0,North,11.5,21.9,N/A,,Scattered Clouds,350,2013-03-23 13:53:00
8:03 AM,14.0,8.6,79,30.11,5.0,NNW,8.1,17.3,N/A,,Haze,340,2013-03-23 14:03:00
8:53 AM,15.1,10.0,80,30.29,10.0,NNW,3.5,-,N/A,,Overcast,340,2013-03-23 14:53:00
9:18 AM,15.8,10.4,79,30.13,5.0,North,5.8,-,N/A,,Haze,360,2013-03-23 15:18:00
9:27 AM,15.8,10.4,79,30.13,1.8,NNW,4.6,-,0.00,Snow,Light Snow,340,2013-03-23 15:27:00
9:37 AM,15.8,10.4,79,30.13,1.2,NNW,8.1,-,0.00,Snow,Light Snow,340,2013-03-23 15:37:00
9:53 AM,16.0,10.9,81,30.29,2.5,NNW,4.6,-,0.00,Snow,Light Snow,340,2013-03-23 15:53:00
10:12 AM,17.6,12.2,79,30.13,5.0,NNW,5.8,-,0.00,,Haze,340,2013-03-23 16:12:00
10:49 AM,19.4,10.4,68,30.13,10.0,NNW,10.4,-,0.00,,Scattered Clouds,340,2013-03-23 16:49:00
10:53 AM,19.0,10.0,68,30.29,10.0,North,16.1,24.2,0.00,,Partly Cloudy,350,2013-03-23 16:53:00
11:53 AM,19.9,10.0,65,30.29,10.0,North,18.4,25.3,N/A,,Clear,350,2013-03-23 17:53:00
12:28 PM,21.2,12.2,68,30.12,10.0,North,15.0,24.2,N/A,,Mostly Cloudy,360,2013-03-23 18:28:00
12:53 PM,21.0,12.0,68,30.29,10.0,North,16.1,24.2,N/A,,Mostly Cloudy,350,2013-03-23 18:53:00
1:43 PM,19.4,10.4,68,30.12,10.0,North,16.1,24.2,N/A,,Overcast,360,2013-03-23 19:43:00
1:53 PM,19.9,10.9,68,30.28,10.0,North,19.6,23.0,N/A,,Overcast,360,2013-03-23 19:53:00
2:02 PM,19.4,12.2,74,30.12,10.0,North,18.4,24.2,N/A,,Overcast,350,2013-03-23 20:02:00
2:22 PM,19.4,10.4,68,30.11,10.0,North,18.4,-,N/A,,Overcast,360,2013-03-23 20:22:00
2:53 PM,19.9,10.0,65,30.27,10.0,North,18.4,26.5,N/A,,Overcast,350,2013-03-23 20:53:00
3:53 PM,21.0,10.0,63,30.29,10.0,North,17.3,24.2,N/A,,Overcast,350,2013-03-23 21:53:00
4:53 PM,21.0,10.0,63,30.28,8.0,NNW,9.2,-,0.00,,Overcast,340,2013-03-23 22:53:00
5:53 PM,21.0,9.0,60,30.30,9.0,NW,11.5,-,0.00,,Overcast,310,2013-03-23 23:53:00
6:46 PM,19.4,10.4,68,30.13,2.5,WSW,8.1,-,0.00,Snow,Light Snow,250,2013-03-24 00:46:00
6:53 PM,19.9,12.0,71,30.31,9.0,WSW,6.9,-,0.00,,Overcast,250,2013-03-24 00:53:00
7:53 PM,19.9,10.0,65,30.30,10.0,WNW,8.1,-,N/A,,Overcast,290,2013-03-24 01:53:00
8:53 PM,18.0,10.0,71,30.30,10.0,West,5.8,-,N/A,,Overcast,270,2013-03-24 02:53:00
9:53 PM,17.1,7.0,65,30.31,10.0,WNW,5.8,-,N/A,,Mostly Cloudy,300,2013-03-24 03:53:00
10:53 PM,18.0,7.0,62,30.30,10.0,NNW,11.5,-,N/A,,Partly Cloudy,330,2013-03-24 04:53:00
11:53 PM,16.0,8.1,71,30.30,10.0,NW,10.4,-,N/A,,Clear,320,2013-03-24 05:53:00